Miscellaneous Local Product
Issued by NWS Hastings, NE

Home | Current Version | Previous Version | Text Only | Print | Product List | Glossary Off
Versions: 1 2 3 4 5 6 7 8 9 10 11 12 13 14 15 16 17 18 19 20 21 22 23 24 25 26 27 28 29 30 31 32 33 34 35 36 37 38 39 40 41 42 43 44 45 46 47 48 49 50

020
AXUS43 KGID 282202
MISGRI

GID CWA HOURLY WEATHER ROUNDUP
NATIONAL WEATHER SERVICE HASTINGS NE
500 PM CDT TUE MAR 28 2017

NOTE: "FAIR" INDICATES FEW OR NO CLOUDS BELOW 12,000 FEET WITH NO
SIGNIFICANT WEATHER AND/OR OBSTRUCTIONS TO VISIBILITY.

...SOUTH CENTRAL NEBRASKA...

CITY           SKY/WX    TMP DP  RH WIND       PRES   REMARKS
GRAND ISLAND   CLOUDY    48  41  76 E15       30.04R
HASTINGS       CLOUDY    50  40  68 E13       30.04R
KEARNEY        CLOUDY    48  37  66 E14       30.04R
ORD            PTSUNNY   51  38  60 E10       30.03S
YORK           CLOUDY    46  41  81 E14       30.04R
AURORA         CLOUDY    47  41  79 E10       30.04R
LEXINGTON      LGT RAIN  49  41  74 E10       30.03R
HOLDREGE       CLOUDY    50  40  69 E13       30.02R
HEBRON         CLOUDY    51  41  68 E12       30.03R

...NEBRASKA PANHANDLE...

CITY           SKY/WX    TMP DP  RH WIND       PRES   REMARKS
CHADRON        LGT RAIN  46  43  89 NE9       30.02S
ALLIANCE       RAIN      42  41  96 E13       29.98R FOG
SCOTTSBLUFF    RAIN      45  42  89 E10       29.97R FOG
SIDNEY         LGT RAIN  43  41  93 E20G26    29.94R FOG

...WESTERN AND NORTH CENTRAL NEBRASKA...

CITY           SKY/WX    TMP DP  RH WIND       PRES   REMARKS
VALENTINE      LGT RAIN  46  42  86 E13       30.07R FOG
AINSWORTH      CLOUDY    49  42  75 E7        30.05S
ONEILL         CLOUDY    54  38  54 E13       30.06S
BROKEN BOW     CLOUDY    48  38  68 E13       30.03R
IMPERIAL       LGT RAIN  44  42  93 SE17      29.99R FOG
NORTH PLATTE   LGT RAIN  47  44  90 E12       30.01R FOG
MCCOOK         LGT RAIN  47  46  97 E7        30.01R FOG

...EASTERN NEBRASKA...

CITY           SKY/WX    TMP DP  RH WIND       PRES   REMARKS
NORFOLK        CLOUDY    55  40  56 E13       30.04S
SO SIOUX CITY  SUNNY     62  36  37 E16       30.04S
TEKAMAH        CLOUDY    54  43  66 E14       30.06S
COLUMBUS       CLOUDY    48  41  76 E12       30.06F
ALBION         CLOUDY    55  41  60 SE13      30.04F
OMAHA EPPLEY   CLOUDY    51  41  68 E13       30.07S
OFFUTT AFB     CLOUDY    49  42  75 E9        30.06F
MILLARD        CLOUDY    51  43  75 E7        30.07S
LINCOLN        CLOUDY    51  42  71 NE13      30.06F
NEBRASKA CITY  CLOUDY    50  40  69 NE8       30.04F
BEATRICE       CLOUDY    51  42  70 E14       30.02R
FALLS CITY     CLOUDY    52  46  80 E12       30.02F

...NORTHERN KANSAS...

CITY           SKY/WX    TMP DP  RH WIND       PRES   REMARKS
GOODLAND       RAIN      42  42 100 E12       29.95R FOG
HILL CITY      RAIN      48  47  96 E9        29.99R FOG
NORTON         LGT RAIN  48  41  76 SE5       29.99
PHILLIPSBURG   RAIN      52  45  76 E7        30.01R
HAYS           LGT RAIN  48  46  93 NE13      29.92F
RUSSELL        RAIN      50  46  86 NE12      29.92F
CONCORDIA      CLOUDY    54  44  69 E7        30.00R
SALINA         CLOUDY    57  45  64 SE10      29.99R
TOPEKA         CLOUDY    55  50  83 NE12      29.98F



USA.gov is the U.S. government's official web portal to all federal, state and local government web resources and services.